Regional Weather Roundup
Issued by NWS

Home | Current Version | Previous Version | Graphics & Text | Print | Product List | Glossary On
Versions: 1 2 3 4 5 6 7 8 9 10 11 12 13 14 15 16 17 18 19 20 21 22 23 24 25 26 27 28 29 30 31 32 33 34 35 36 37 38 39 40 41 42 43 44 45 46 47 48 49 50
515
ASUS44 KJAN 172203
RWRMS

MISSISSIPPI HOURLY WEATHER ROUNDUP
NATIONAL WEATHER SERVICE JACKSON MS
500 PM CDT THU APR 17 2014

NOTE: "FAIR: INDICATES FEW OR NO CLOUDS BELOW 12,000 FEET WITH NO
SIGNIFICANT WEATHER AND/OR OBSTRUCTIONS TO VISIBILITY.

MSZ001>002-007>008-010>013-018>021-025>028-034>036-172300-
NORTHWEST MISSISSIPPI

CITY           SKY/WX    TMP DP  RH WIND       PRES   REMARKS
CLARKSDALE       N/A     68  45  42 E7        30.20S
CLEVELAND      FAIR      67  48  50 SE3       30.18F
GREENWOOD      CLOUDY    68  45  43 SE8       30.18F
GREENVILLE     CLOUDY    66  48  52 S5        30.17F
GRENADA        FAIR      64  46  52 E7        30.19F
OLIVE BRANCH   CLOUDY    68  39  34 SE7       30.20F
OXFORD         FAIR      64  41  42 SE5       30.23S
TUNICA         CLOUDY    68  43  40 CALM      30.20F
$$

MSZ003>006-009-014>017-022>024-029>033-037>039-172300-
NORTHEAST MISSISSIPPI

CITY           SKY/WX    TMP DP  RH WIND       PRES   REMARKS
BELMONT        FAIR      67  42  40 SE6       30.23S
COLUMBUS AFB   CLOUDY    69  47  45 SE8       30.20F
CORINTH        FAIR      68  37  32 S8        30.22S
GOLDN TRIANGLE PTSUNNY   66  48  52 SE12      30.23F
STARKVILLE     FAIR      64  50  59 SE3       30.20F
TUPELO         CLOUDY    68  43  40 VRB6      30.21F
$$

MSZ040-058-172300-
CENTRAL MISSISSIPPI

CITY           SKY/WX    TMP DP  RH WIND       PRES   REMARKS
JACKSON INTL   CLOUDY    66  51  58 SE8       30.18R
JACKSON HAWKNS CLOUDY    67  49  52 MISG      30.18R
MERIDIAN KEY   CLOUDY    65  49  56 E7        30.19S
MERIDIAN NAS   CLOUDY    65  50  58 E9        30.21S
RAYMOND        MOCLDY    66  61  82 SE9       30.18R
VICKSBURG      CLOUDY    67  53  61 E7        30.16F
$$

MSZ059>079-172300-
SOUTH MISSISSIPPI

CITY           SKY/WX    TMP DP  RH WIND       PRES   REMARKS
BROOKHAVEN     FAIR      64  55  72 CALM      30.18S
COLUMBIA       MOCLDY    64  55  72 MISG      30.17R
HATTIESBURG    CLOUDY    66  55  67 E6        30.19S
MCCOMB         CLOUDY    64  56  75 E7        30.16R
NATCHEZ        CLOUDY    64  54  68 E9        30.13F
PINE BELT      CLOUDY    64  52  63 NE3       30.19S
$$

MSZ080>082-172300-
COASTAL MISSISSIPPI

CITY           SKY/WX    TMP DP  RH WIND       PRES   REMARKS
BILOXI         CLOUDY    65  59  78 SE6       30.16S
PASCAGOULA     CLOUDY    68  58  70 CALM      30.15F
GULFPORT       CLOUDY    67  58  72 SE8       30.15F
$$



USA.gov is the U.S. government's official web portal to all federal, state and local government web resources and services.